Weather in Dunai

Nepal     28°56′17″N   82°53′32″E
temp.,
°C
wind,
m/s
gust,
m/s
humid.,
%
clouds,
%
prec.,
mm/h
press.,
hPa
HPBL,
m
18 may, tue
tue1823:45+3wsw3390100 1.6 1020324
02:45+2wnw2292100 1.1 1020285
05:45+1wsw2199100 5.3 1020172
08:45+2ssw1195100 5.6 1020186
11:45+5sw4492100 6.5 1017540
14:45+4wsw4497100 2.5 1016587
17:45+2sse1197100 12.3 1019136
20:45+4nw019276 0.8 1019159
19 may, wed
wed1923:45+3ene229183 0.9 101943
02:45+3e1190100 0.2 101636
05:45+2wsw1296100 2.3 1017106
08:45+2sw2398100 4.8 1019291
11:45+2ssw1297100 10.9 1018254
14:45+2sw1398100 5.3 1016318
17:45+1ssw1198100 13.3 1017186
20:45+1n0197100 7.1 1019132
20 may, thu
thu2023:45+3sw1396100 9.0 1017204
02:45+2e1198100 7.0 1016161
05:45+2se139893 11.1 1016198
08:45+2sse2297100 4.3 1017173
11:45+2sw3599100 14.8 1018410
14:45+2ssw3499100 10.4 1017294
17:45+4ssw45100100 20.3 1014216
20:45+3ssw34100100 3.4 1016240
21 may, fri
fri2123:45+2ssw249996 13.2 1018337
02:45+2ese019798 0.2 1016130
05:45+2ese1190100 0.3 101759
08:45+4s127979 0.0 1017470
11:45+6ssw348084 0.3 1014721
14:45+6sw458986 1.9 1013427
17:45+4sw339174 3.6 1014279
20:45+3wsw119299 0.6 1016285
22 may, sat
sat2223:45+4se117686 0.6 1016445
02:450e327357 0.0 101882
05:45−3ene54716 0.0 102263
08:45+3ene11662 0.0 1018480
11:45+6nw226839 0.0 1015951
14:45+6w237459 0.3 1013661
17:45+6wnw227689 0.8 1013693
20:45+5w127091 0.1 1016281